Fairbanks Eiels, AK

3:50 PM AKST on December 05, 2019 (GMT -0900)
Eielson Air Force Base

Weather History for PAEI - October, 2019

Change the Weather History Date:

Tuesday, October 22, 2019

  Actual Average Record
Temperature  
Mean Temperature 25 °F -  
Max Temperature 34 °F 25 °F 51 °F (1957)
Min Temperature 16 °F 12 °F -13 °F (1988)
Degree Days  
Heating Degree Days 40    
Moisture  
Dew Point 20 °F    
Average Humidity 84    
Maximum Humidity 90    
Minimum Humidity 69    
Precipitation  
Precipitation 0.00 in - - ()
Sea Level Pressure  
Sea Level Pressure 29.89 in    
Wind  
Wind Speed 0 mph (NNW)    
Max Wind Speed 5 mph    
Max Gust Speed -    
Visibility 10 miles    
Events      
Averages and records for this station are not official NWS values.
T = Trace of Precipitation, MM = Missing Value Source: NWS Daily Summary

Daily Weather History Graph

Daily Weather History Graph

Search for Another Location

Airport or City:

Astronomy

Oct. 22, 2019 Rise Set
Actual Time 9:02 AM AKDT 6:02 PM AKDT
Civil Twilight 8:11 AM AKDT 6:53 PM AKDT
Nautical Twilight 7:14 AM AKDT 7:49 PM AKDT
Astronomical Twilight 6:17 AM AKDT 8:46 PM AKDT
Moon No Moon Rise 6:06 PM AKDT (10/22)
Length of Visible Light 10h 42m
Length of Day
8h 59m
Waning Crescent, 35% of the Moon is Illuminated
Oct 22
Waning Crescent
Oct 27
New
Nov 4
First Quarter
Nov 12
Full
Nov 19
Last Quarter

Hourly Weather History & Observations

Time (AKDT) Temp. Windchill Dew Point Humidity Pressure Visibility Wind Dir Wind Speed Gust Speed Precip Events Conditions
12:56 AM 21.0 °F - 18.3 °F 89% 29.77 in 10.0 mi Calm Calm - N/A   Overcast
1:56 AM 22.6 °F - 19.6 °F 88% 29.78 in 10.0 mi Calm Calm - N/A   Overcast
2:41 AM 23.0 °F - 19.4 °F 86% 29.80 in 10.0 mi Calm Calm - N/A   Overcast
2:56 AM 23.0 °F - 19.9 °F 88% 29.80 in 10.0 mi Calm Calm - N/A   Overcast
3:56 AM 23.4 °F - 20.1 °F 87% 29.80 in 10.0 mi Calm Calm - N/A   Overcast
4:11 AM 23.0 °F - 19.4 °F 86% 29.81 in 10.0 mi Calm Calm - N/A   Overcast
4:56 AM 23.5 °F - 19.9 °F 86% 29.83 in 10.0 mi Calm Calm - N/A   Overcast
5:56 AM 24.4 °F - 20.5 °F 85% 29.83 in 10.0 mi Calm Calm - N/A   Overcast
6:41 AM 24.8 °F - 21.2 °F 86% 29.86 in 10.0 mi Calm Calm - N/A   Overcast
6:56 AM 24.1 °F - 20.8 °F 87% 29.86 in 10.0 mi Calm Calm - N/A   Overcast
7:56 AM 24.8 °F - 21.2 °F 86% 29.88 in 10.0 mi Calm Calm - N/A   Mostly Cloudy
8:11 AM 24.8 °F - 21.2 °F 86% 29.88 in 10.0 mi Calm Calm - N/A   Mostly Cloudy
8:41 AM 24.8 °F - 21.2 °F 86% 29.85 in 10.0 mi Calm Calm - N/A   Overcast
8:56 AM 24.8 °F - 21.7 °F 88% 29.90 in 10.0 mi Calm Calm - N/A   Mostly Cloudy
9:56 AM 25.2 °F - 22.1 °F 88% 29.92 in 10.0 mi Calm Calm - N/A   Mostly Cloudy
10:56 AM 26.6 °F - 23.0 °F 86% 29.89 in 10.0 mi Calm Calm - N/A   Mostly Cloudy
11:56 AM 28.2 °F 23.1 °F 23.2 °F 81% 29.95 in 10.0 mi NNW 4.6 mph - N/A   Mostly Cloudy
12:56 PM 29.5 °F - 23.5 °F 79% 29.97 in 10.0 mi Calm Calm - N/A   Scattered Clouds
2:56 PM 33.1 °F - 24.4 °F 71% 29.97 in 10.0 mi Calm Calm - N/A   Clear
3:56 PM 34.0 °F - 24.8 °F 69% 29.97 in 10.0 mi Calm Calm - N/A   Clear
4:56 PM 31.3 °F - 24.3 °F 75% 29.96 in 10.0 mi Calm Calm - N/A   Clear
5:56 PM 28.4 °F - 23.0 °F 80% 29.93 in 10.0 mi Calm Calm - N/A   Clear
6:56 PM 25.5 °F - 21.4 °F 84% 29.97 in 10.0 mi Calm Calm - N/A   Mostly Cloudy
7:56 PM 22.5 °F - 18.9 °F 86% 29.97 in 10.0 mi Calm Calm - N/A   Clear
8:56 PM 21.0 °F - 18.5 °F 90% 29.96 in 10.0 mi Calm Calm - N/A   Clear
9:56 PM 18.9 °F - 15.6 °F 87% 29.94 in 10.0 mi Calm Calm - N/A   Partly Cloudy
10:56 PM 16.0 °F - 12.7 °F 87% 29.92 in 10.0 mi Calm Calm - N/A   Clear
11:56 PM 16.0 °F - 12.6 °F 86% 29.90 in 10.0 mi Calm Calm - N/A   Clear